sat.trackr.live / text

‹ back to catalog

STARLINK-2329

NORAD 47873 · 2021-021P

PAYLOAD ACTIVE UNKNOWN

§ Identity

Operator
Country
US
Launch date
2021-03-14
Launch site
AFETR
Launch vehicle
Mass (kg)
RCS (m²)

Purposes: comms

External: N2YO · Heavens-Above · Gunter

§ Orbital elements

Epoch: 2026-05-25T00:42:30.351744Z

Period
94.01 min
Inclination
53.1578°
Eccentricity
0.0001844
Mean motion
15.31697140 rev/d
Perigee alt
469.5 km
Apogee alt
472.0 km
Semi-major
6,848.9 km
B*
-2.2040e-5
RAAN
260.3637°
Arg perigee
79.5794°
Mean anomaly
280.5415°
Rev number
28,811

§ Raw data

STARLINK-23291 47873U 21021P   26145.02951796 -.00001049  00000+0 -22040-4 0  99992 47873  53.1578 260.3637 0001844  79.5794 280.5415 15.31697140288117

JSON: /api/v1/satellites/47873 · /tle

For live sub-satellite position, see the globe view (requires WebGL).

§ Visibility from observer

Set your observer location to see the next 7 days of passes ≥ 10°. The values pass through the URL so the page stays shareable.

No JS? Fill the form by hand. The geolocation button needs JavaScript.